Location: Fareins
(46.0179°N, 4.7599°E)
Time: 01:04:16
(UTC+00:00)

Daily predictions for brighter satellites

Satellite Brightness Start Highest point End
(mag) Time Altitude Azimuth Time Altitude Azimuth Time Altitude Azimuth
Cosmos 1464 Rocket 3.9 00:08:47 69° SE 00:09:27 76° E 00:15:41 10° NNE
Cosmos 2333 4.2 00:04:38 10° NNW 00:10:14 69° W 00:10:14 69° W
Cosmos 2219 Rocket 2.1 00:05:15 10° NNW 00:10:59 85° ENE 00:11:13 82° ESE
Cosmos 1782 Rocket 4.2 00:12:54 54° NNE 00:12:54 54° NNE 00:16:18 10° N
Lacrosse 4 Rocket 2.3 00:13:01 49° N 00:13:01 49° N 00:16:13 10° NNE
Cosmos 1354 Rocket 4.1 00:16:38 69° E 00:16:38 69° E 00:21:43 10° NNE
Cosmos 2322 Rocket 4.1 00:14:54 10° WNW 00:17:43 17° W 00:17:43 17° W
Cosmos 968 Rocket 3.6 00:19:13 67° WNW 00:19:13 67° WNW 00:24:14 10° NNE
SL-4 R/B 4.3 00:22:19 15° ENE 00:22:19 15° ENE 00:23:06 10° ENE
COSMOS 2428 2.6 00:23:20 10° NNW 00:29:06 79° WSW 00:29:11 79° SW
SL-16 R/B 3.5 00:28:37 25° ESE 00:31:44 42° ENE 00:37:35 10° N
CENTAUR R/B 4.3 00:28:02 10° W 00:33:38 30° NNW 00:40:05 10° NNE
Nadezhda 4 Rocket 3.9 00:27:56 10° N 00:34:17 85° E 00:35:18 65° SSE
Cosmos 2360 Rocket 3.7 00:29:59 10° NW 00:33:24 23° W 00:33:24 23° W
Cosmos 2034 Rocket 3.8 00:35:41 68° S 00:36:34 86° E 00:42:55 10° N
CZ-2D R/B 3.3 00:32:20 10° NNE 00:37:11 31° E 00:38:05 30° ESE
Okean 2 Rocket 3.4 00:41:46 62° NE 00:41:46 62° NE 00:45:43 10° NNE
Meteor 2-9 Rocket 4.3 00:41:29 60° W 00:41:50 62° WNW 00:47:28 10° N
GEOS 3 Rocket 3.6 00:37:08 10° NE 00:42:33 74° SE 00:42:46 73° SSE
Cosmos 1975 4.3 00:45:31 31° NW 00:45:31 31° NW 00:48:18 10° N
ADEOS II 4.3 00:42:27 10° NE 00:45:25 15° E 00:47:27 12° ESE
Cosmos 2297 Rocket 3.0 00:45:36 37° ESE 00:46:05 37° ESE 00:51:15 10° NE
Cosmos 2219 3.7 00:45:50 43° ESE 00:46:14 44° ESE 00:51:32 10° NE
Cosmos 1092 Rocket 4.1 00:40:08 10° N 00:46:23 67° E 00:48:01 49° SE
Cosmos 1975 Rocket 4.1 00:42:18 10° NNW 00:45:36 38° WNW 00:45:36 38° WNW
Sich 1 Rocket 4.0 00:48:43 56° NW 00:48:43 56° NW 00:52:28 10° N
Cosmos 1980 3.9 00:42:29 10° NNW 00:48:08 65° ENE 00:49:51 44° SE
PSLV R/B 4.4 00:44:09 10° N 00:48:26 44° WNW 00:48:26 44° WNW
Cosmos 2333 Rocket 2.7 00:43:15 10° NW 00:48:11 44° W 00:48:11 44° W
Cosmos 1777 Rocket 4.3 00:49:00 52° ESE 00:49:14 52° ESE 00:54:22 10° NNE
Helios 1B rocket 3.2 00:45:32 10° N 00:48:49 48° NNW 00:48:49 48° NNW
Meteor 1-29 4.5 00:50:04 10° N 00:52:12 35° N 00:52:12 35° N
Cosmos 44 Rocket 3.3 00:50:33 10° NW 00:55:08 72° WNW 00:55:08 72° WNW
Cosmos 1300 Rocket 3.7 00:57:53 68° N 00:57:53 68° N 01:01:41 10° N
Cosmos 2237 Rocket 2.3 00:52:32 10° NNW 00:58:13 73° ENE 00:59:51 47° SE
DELTA 2 DEB (DPAF) 4.2 01:00:27 69° E 01:00:31 69° ENE 01:04:57 10° N
Okean 1 Rocket 4.1 01:01:02 36° E 01:01:13 36° E 01:05:12 10° NNE
CZ-4C R/B 4.3 01:04:18 39° NE 01:04:18 39° NE 01:07:09 10° N
Spot 1 4.1 01:06:49 69° NNW 01:06:49 69° NNW 01:10:27 10° NNW
Cosmos 2151 Rocket 3.6 01:12:29 76° NW 01:12:29 76° NW 01:16:41 10° N
Meteor 1-12 Rocket 4.3 01:11:28 59° SW 01:12:32 72° WNW 01:18:34 10° N
Timation 2 Rocket 3.9 01:14:34 55° SW 01:15:59 79° WNW 01:22:05 10° NNE
Cosmos 1707 4.1 01:14:39 10° NNW 01:17:05 30° NW 01:17:05 30° NW
In-Cosmos 22 4.1 01:12:54 10° NNW 01:18:31 72° W 01:19:15 63° SSW
Meteor 1-15 Rocket 4.2 01:22:53 52° SSE 01:24:16 75° E 01:29:53 10° NNE
Cosmos 1805 3.8 01:24:26 51° E 01:24:26 51° E 01:28:08 10° NNE
SJ 16-02 2.6 01:25:10 29° ESE 01:25:53 30° E 01:29:46 10° NE
ERBS 3.7 01:24:12 10° NW 01:27:18 37° NNE 01:30:23 10° ESE
DNEPR-1 R/B 4.3 01:21:24 10° NNW 01:27:18 66° NE 01:31:05 17° SE
Meteor 2-13 Rocket 4.4 01:26:43 10° NNW 01:32:44 64° W 01:34:11 49° SSW
Cosmos 2227 Rocket 2.2 01:33:34 52° S 01:34:58 77° ESE 01:40:39 10° NNE
Cosmos 1538 Rocket 3.9 01:30:04 10° NNW 01:35:11 67° WSW 01:35:51 60° SSW
MOZ.5/SAFIR/RUBIN 5/SL-8 4.1 01:36:59 48° W 01:36:59 48° W 01:41:29 10° NNW
Cosmos 1025 Rocket 4.1 01:33:03 10° NNW 01:36:08 31° WNW 01:36:08 31° WNW
Resurs 1-4 Rocket 2.0 01:32:52 10° NNE 01:38:11 82° WNW 01:39:24 54° SSW
Cosmos 1674 2.9 01:36:37 10° NNW 01:39:47 59° NW 01:39:47 59° NW
Cosmos 1733 3.4 01:42:54 58° ESE 01:43:07 59° E 01:46:54 10° NNE
NOSS 0 Rocket 4.4 01:38:36 10° NW 01:44:19 38° WSW 01:44:40 38° WSW
ATLAS 3B R/B 4.3 01:41:26 10° W 01:46:50 26° NNW 01:52:19 10° NNE
Cosmos 2279 Rocket 3.9 01:44:46 39° S 01:47:14 84° E 01:53:28 10° N
Cosmos 1461 4.3 01:47:03 27° SE 01:47:51 29° ESE 01:51:43 10° NE
USA 215 3.3 01:42:23 10° NE 01:48:54 65° SE 01:51:29 38° SSW
COBE Rocket 3.9 01:47:33 38° SSE 01:49:21 74° ENE 01:54:00 10° N
Cosmos 2026 Rocket 4.1 01:43:29 10° NNW 01:49:25 56° W 01:51:08 42° SW
Lacrosse 4 Rocket 4.0 01:49:30 10° WNW 01:51:24 13° NW 01:53:17 10° NNW
Cosmos 1634 Rocket 4.2 01:50:26 40° SW 01:52:27 58° WNW 01:58:36 10° N
Cosmos 2219 Rocket 4.1 01:50:59 10° WNW 01:52:54 14° W 01:52:54 14° W
SL-24 R/B 4.4 01:53:41 39° SSE 01:55:30 80° E 02:00:30 10° N
Cosmos 2082 3.9 01:53:29 39° S 01:55:32 65° ESE 02:01:07 10° NNE
Cosmos 2344 4.4 01:46:13 10° NW 01:55:54 68° WSW 02:09:24 10° SSE
SL-4 R/B 2.0 01:58:02 23° NW 01:59:57 61° NNE 02:03:19 10° ESE
Cosmos 2112 Rocket 4.4 01:55:31 10° NNW 02:00:44 61° ENE 02:05:52 10° SSE
Meteor 1-24 Rocket 3.5 02:00:20 10° N 02:05:51 89° ENE 02:08:55 27° S
SL-16 R/B 2.1 02:01:07 10° NNW 02:06:52 89° WSW 02:12:33 10° SSE
CBERS-1 4.0 02:01:53 10° NNE 02:07:02 83° ESE 02:09:09 36° S
Meteor 2-5 Rocket 3.7 02:03:57 10° NNW 02:09:33 66° W 02:11:59 34° SSW
H-2A R/B 4.4 02:11:05 10° ESE 02:14:14 22° ENE 02:17:23 10° NNE
Cosmos 1898 Rocket 3.9 02:11:41 28° S 02:14:18 57° ESE 02:19:26 10° NNE
ARIANE 5 R/B 3.3 02:09:25 10° NNE 02:14:28 47° E 02:18:03 19° SSE
SL-16 R/B 3.2 02:13:42 32° SW 02:15:23 37° W 02:21:09 10° NNW
NPP 4.1 02:11:10 10° N 02:16:20 48° WNW 02:18:22 32° WSW
IDEFIX/ARIANE 42P 4.0 02:12:35 10° NNE 02:17:17 33° E 02:21:55 10° SSE
CZ-2D R/B 2.8 02:12:12 10° N 02:17:19 41° WNW 02:19:24 29° WSW
Cosmos 1680 Rocket 3.4 02:13:17 10° NNW 02:18:33 83° WSW 02:22:58 15° SSE
NOSS 3-1 (C) 3.8 02:17:24 27° S 02:20:09 50° ESE 02:26:08 10° NE
USA 267 3.5 02:14:49 10° ESE 02:21:19 73° NNE 02:27:51 10° NW
Cosmos 1544 Rocket 4.1 02:20:01 23° SSE 02:22:37 55° E 02:27:00 10° NNE
AQUA 4.3 02:18:17 10° N 02:22:51 46° WNW 02:24:26 33° WSW
Cosmos 1607 3.9 02:19:09 10° NW 02:25:34 71° WSW 02:31:59 10° SSE
ADEOS II 2.0 02:20:26 10° NNE 02:25:43 78° WNW 02:28:23 30° SSW
Cosmos 990 Rocket 4.0 02:23:20 30° S 02:25:57 78° ESE 02:31:10 10° NNE
Cosmos 1766 4.1 02:26:32 33° W 02:27:04 34° WNW 02:30:40 10° N
Cosmos 2263 Rocket 3.6 02:23:53 11° SSE 02:28:28 30° ESE 02:33:16 10° NE
IRS-1D 3.6 02:24:33 10° N 02:29:31 61° WNW 02:31:54 31° SW
Meteor 1-22 Rocket 4.1 02:27:11 32° SSW 02:29:37 64° WNW 02:34:55 10° N
Cosmos 2297 Rocket 3.0 02:27:24 24° WSW 02:30:07 38° NW 02:35:23 10° NNE
Cosmos 2219 4.2 02:27:45 22° W 02:30:30 33° NW 02:35:35 10° NNE
Okean 1-7 Rocket 3.5 02:28:01 10° NNW 02:32:27 76° W 02:35:04 24° S
IRS-1C 4.1 02:29:57 10° NNE 02:35:20 89° W 02:38:42 23° SSW
Cosmos 1626 2.7 02:35:01 10° NNW 02:38:28 36° W 02:38:57 34° WSW
Meteor 1-28 Rocket 3.1 02:36:22 22° S 02:38:43 84° W 02:42:32 10° NNW
Okean 1 Rocket 4.5 02:38:14 21° W 02:39:13 22° WNW 02:42:40 10° NNW
Cosmos 2266 Rocket 4.0 02:33:04 10° NNW 02:39:26 72° W 02:45:02 13° S
Cosmos 1655 Rocket 4.2 02:34:09 10° NNW 02:40:14 54° W 02:44:28 20° SSW
Cosmos 2237 Rocket 3.6 02:37:54 10° WNW 02:41:36 18° W 02:41:36 18° W
CZ-4B R/B 4.0 02:38:16 10° N 02:42:44 39° WNW 02:44:51 25° WSW
Cosmos 1470 2.7 02:41:43 31° SSW 02:43:32 73° W 02:47:31 10° N
Cosmos 1603 4.5 02:40:41 10° NNW 02:46:21 56° ENE 02:51:58 10° SE
SL-08 R/B 3.4 02:43:56 15° S 02:48:02 64° WSW 02:52:59 10° NNW
USA 229 DEB 3.7 02:48:34 20° SSW 02:53:14 75° SE 03:00:05 10° NE
USA 229 3.7 02:48:40 20° SSW 02:53:18 74° SE 03:00:09 10° NE
Cosmos 2098 Rocket 3.8 02:49:45 10° NNW 02:54:25 52° W 02:59:34 13° SSW
NOSS 3 (A) 4.4 02:55:49 36° SSW 02:56:43 68° SE 02:59:36 10° NE
OPS 8737 4.4 02:57:00 28° SW 02:58:45 69° NW 03:01:45 10° NE
ERBS 3.1 03:00:39 10° WNW 03:03:33 27° SW 03:06:18 10° S
NOSS 2-3 (C) 4.1 03:01:08 18° SSW 03:04:12 56° ESE 03:09:00 10° NE
Meteor 2-14 Rocket 4.4 02:58:11 10° N 03:04:16 88° W 03:10:20 10° S
NOSS 3-1 (A) 3.6 03:00:07 16° SSW 03:04:24 63° ESE 03:10:37 10° NE
SJ 16-02 2.5 03:02:10 19° WSW 03:04:26 29° WNW 03:08:20 10° N
CSL-04 DEB 4.2 03:05:37 10° SSE 03:09:32 84° WSW 03:13:29 10° NNW
MSX 4.1 03:07:40 10° NNE 03:13:27 72° ESE 03:19:12 10° S
Cosmos 1809 Rocket 4.5 03:07:28 10° NNW 03:13:28 62° W 03:19:29 10° S
Cosmos 1943 3.4 03:08:00 10° NNW 03:13:39 75° ENE 03:19:16 10° SSE
Cosmos 1455 Rocket 4.0 03:11:32 19° WSW 03:13:59 31° WNW 03:17:58 10° N
Cosmos 1626 Rocket 3.6 03:10:30 10° NNW 03:14:46 59° W 03:18:59 10° S
Cosmos 1758 4.0 03:13:24 19° SW 03:15:54 39° WNW 03:19:42 10° N
Resurs 1-4 Rocket 4.1 03:14:36 10° NNW 03:17:11 14° NW 03:19:45 10° W
Spot 4 Rocket 4.1 03:12:54 10° N 03:18:03 70° WNW 03:23:00 11° SSW
Meteor 1-21 Rocket 4.1 03:13:00 10° NNW 03:18:35 75° W 03:24:04 10° S
Cosmos 2227 Rocket 3.8 03:15:24 10° W 03:19:40 22° NW 03:24:00 10° N
SeaSat 1 2.9 03:17:20 10° NE 03:22:15 62° ESE 03:27:08 10° SSW
Landsat 5 3.2 03:20:24 10° S 03:24:16 79° WSW 03:28:18 10° NNW
CZ-2C R/B 2.7 03:22:17 10° N 03:26:12 76° WNW 03:29:58 10° SSW
Cosmos 1461 3.9 03:23:26 14° WSW 03:26:49 39° NW 03:31:09 10° NNE
CZ-2D R/B 3.8 03:23:51 10° N 03:27:45 45° WNW 03:31:11 12° SW
Cosmos 2227 4.3 03:24:45 11° SSW 03:30:21 82° WNW 03:36:10 10° NNE
FALCON 9 DEB 3.1 03:27:11 10° WNW 03:30:37 60° SW 03:34:01 10° SE
USA 215 3.8 03:25:31 10° NE 03:31:49 52° NNW 03:38:07 10° W
ATLAS CENTAUR R/B 3.5 03:28:59 10° SSE 03:32:10 21° ESE 03:35:13 10° ENE
ATLAS 3B CENTAUR R/B 4.3 03:27:04 12° WSW 03:32:34 18° SSW 03:36:46 10° SSE
Cosmos 1340 Rocket 4.0 03:29:56 14° WSW 03:32:35 26° WNW 03:35:58 10° NNW
Cosmos 1758 Rocket 3.6 03:28:25 10° N 03:32:45 81° E 03:37:04 10° S
ERS-2 2.1 03:31:57 10° S 03:35:33 63° WSW 03:39:11 10° NNW
Cosmos 724 4.4 03:30:35 10° NW 03:36:29 59° WSW 03:42:27 10° SSE
Cosmos 2228 3.7 03:32:30 10° S 03:36:46 57° E 03:41:05 10° NNE
Cosmos 1953 2.8 03:35:03 10° SSW 03:38:49 42° WNW 03:42:42 10° N
SL-4 R/B 2.6 03:36:26 10° W 03:39:16 25° SW 03:42:07 10° SSE
Cosmos 1726 3.0 03:38:38 11° SW 03:41:47 32° WNW 03:45:07 10° N
Cosmos 1908 3.2 03:40:01 10° SSW 03:43:54 79° W 03:47:51 10° N
Meteor 1-16 Rocket 4.2 03:39:43 10° SSW 03:45:03 70° WNW 03:50:34 10° N
Cosmos 2285 Rocket 4.1 03:40:33 10° SSW 03:46:51 83° ESE 03:53:11 10° NNE
H-2A R/B 2.5 03:46:11 10° SSW 03:50:01 37° W 03:53:50 10° NNW
SL-16 R/B 3.8 03:47:20 10° WNW 03:50:06 14° W 03:52:53 10° SW
Cosmos 2150 Rocket 4.0 03:46:30 10° SSW 03:51:40 89° WNW 03:56:55 10° NNE
ARIANE 5 R/B 3.8 03:49:01 10° N 03:53:19 26° WNW 03:57:36 10° WSW
Cosmos 1825 Rocket 3.5 03:50:59 10° NNW 03:55:20 74° W 03:59:38 10° S
IDEFIX/ARIANE 42P 3.4 03:52:11 10° N 03:56:52 35° WNW 04:01:33 10° SW
CZ-4C R/B 4.1 03:56:51 10° SSW 03:59:27 23° W 04:02:07 10° NW
Cosmos 1328 3.9 03:55:49 10° NNW 03:59:43 55° W 04:03:37 10° S
ADEOS 4.1 03:54:52 10° NNE 04:00:04 62° ESE 04:05:14 10° S
Cosmos 1953 Rocket 3.7 03:56:53 10° N 04:01:24 86° E 04:05:52 10° S
